TEVEL2-6

Last updated on Fri Dec 19 2025 00:03:12 GMT+0000 (Coordinated Universal Time)

1 63215U 25052F 25352.42982063 .00015771 00000+0 59446-3 0 9993 2 63215 97.4111 244.1944 0004897 51.0314 309.1361 15.27144655 42450
UTC large
Height (km)
Speed (km/s)
/
Latitude / Longitude
Inclination (degrees)
Orbital Period (minutes)
Azimuth
Elevation
Range (km)
Doppler Factor

Next 0 passes for location: London (51.5072 / 0.1276)

Sorry there are no passes over London.